When you browse on this site, cookies collect data to enhance your experience and personalize the content and advertising you see.
Visit our Privacy Policy to learn more. By continuing to use the site, you agree to this use of cookies and data.
  • en France
  • Liste des pays
  • À 7 jours
  • Température de l'eau
  • Carte satellitaire
  • Carte météo
  • Widgets météo
  • user-avatar
    Se connecter

    Météo par heure à Dangriga

    Ce jour, 17 Février, Dimanche

    Heure Température Précipitation Vent Pression Humidité
    00:00 +24°C° 0 mm 2 m/s 757 mmHg 95%
    01:00 +24°C° 0 mm 2 m/s 757 mmHg 95%
    02:00 +24°C° 0 mm 1 m/s 756 mmHg 95%
    03:00 +24°C° 0 mm 1 m/s 756 mmHg 95%
    04:00 +24°C° 0 mm 1 m/s 756 mmHg 95%
    05:00 +24°C° 0 mm 1 m/s 757 mmHg 96%
    06:00 +25°C° 0 mm 1 m/s 757 mmHg 97%
    07:00 +27°C° 0 mm 1 m/s 757 mmHg 89%
    08:00 +29°C° 0 mm 1 m/s 758 mmHg 80%
    09:00 +31°C° 0 mm 1 m/s 758 mmHg 71%
    10:00 +32°C° 0 mm 2 m/s 758 mmHg 66%
    11:00 +34°C° 0 mm 2 m/s 758 mmHg 61%
    12:00 +36°C° 0 mm 3 m/s 758 mmHg 55%
    13:00 +35°C° 0 mm 3 m/s 757 mmHg 56%
    14:00 +35°C° 0 mm 3 m/s 756 mmHg 58%
    15:00 +35°C° 0 mm 4 m/s 755 mmHg 59%
    16:00 +33°C° 0 mm 4 m/s 755 mmHg 67%
    17:00 +30°C° 0 mm 4 m/s 756 mmHg 76%
    18:00 +28°C° 0 mm 3 m/s 756 mmHg 85%
    19:00 +27°C° 0 mm 3 m/s 756 mmHg 89%
    20:00 +27°C° 0 mm 3 m/s 757 mmHg 92%
    21:00 +26°C° 0 mm 3 m/s 757 mmHg 95%
    22:00 +26°C° 0 mm 2 m/s 757 mmHg 96%
    23:00 +26°C° 0 mm 2 m/s 757 mmHg 97%

    Demain, 18 Février, Lundi

    Heure Température Précipitation Vent Pression Humidité
    00:00 +26°C° 0 mm 2 m/s 757 mmHg 98%
    01:00 +26°C° 0 mm 2 m/s 757 mmHg 98%
    02:00 +26°C° 0 mm 2 m/s 757 mmHg 98%
    03:00 +26°C° 0 mm 2 m/s 757 mmHg 97%
    04:00 +26°C° 0 mm 2 m/s 757 mmHg 98%
    05:00 +26°C° 0 mm 2 m/s 757 mmHg 98%
    06:00 +26°C° 0 mm 1 m/s 757 mmHg 99%
    07:00 +28°C° 0 mm 2 m/s 758 mmHg 90%
    08:00 +30°C° 0 mm 2 m/s 759 mmHg 81%
    09:00 +32°C° 0 mm 2 m/s 759 mmHg 73%
    10:00 +34°C° 0 mm 2 m/s 759 mmHg 65%
    11:00 +35°C° 0 mm 2 m/s 759 mmHg 58%
    12:00 +37°C° 0 mm 3 m/s 759 mmHg 51%
    13:00 +36°C° 0 mm 3 m/s 758 mmHg 53%
    14:00 +35°C° 0 mm 3 m/s 757 mmHg 55%
    15:00 +35°C° 0 mm 4 m/s 757 mmHg 57%
    16:00 +33°C° 0 mm 4 m/s 757 mmHg 66%
    17:00 +30°C° 0 mm 4 m/s 757 mmHg 75%
    18:00 +28°C° 0 mm 4 m/s 757 mmHg 84%
    19:00 +28°C° 0 mm 4 m/s 758 mmHg 88%
    20:00 +27°C° 0 mm 4 m/s 758 mmHg 91%
    21:00 +27°C° 0 mm 3 m/s 759 mmHg 94%
    22:00 +27°C° 0 mm 3 m/s 759 mmHg 94%
    23:00 +27°C° 0 mm 3 m/s 759 mmHg 95%

    Après-demain, 19 Février, Mardi

    Heure Température Précipitation Vent Pression Humidité
    00:00 +27°C° 0 mm 3 m/s 759 mmHg 95%
    01:00 +27°C° 0 mm 4 m/s 758 mmHg 94%
    02:00 +28°C° 0 mm 4 m/s 758 mmHg 92%
    03:00 +28°C° 0 mm 4 m/s 757 mmHg 90%
    04:00 +28°C° 0 mm 4 m/s 758 mmHg 90%
    05:00 +28°C° 0 mm 4 m/s 758 mmHg 89%
    06:00 +27°C° 0 mm 4 m/s 758 mmHg 89%
    07:00 +28°C° 0 mm 4 m/s 759 mmHg 85%
    08:00 +29°C° 0 mm 4 m/s 760 mmHg 80%
    09:00 +30°C° 0 mm 4 m/s 760 mmHg 75%
    10:00 +32°C° 0 mm 4 m/s 760 mmHg 71%
    11:00 +33°C° 0 mm 4 m/s 760 mmHg 67%
    12:00 +34°C° 0 mm 4 m/s 759 mmHg 63%
    13:00 +34°C° 0 mm 4 m/s 759 mmHg 61%
    14:00 +34°C° 0 mm 4 m/s 758 mmHg 60%
    15:00 +33°C° 0 mm 4 m/s 757 mmHg 58%
    16:00 +32°C° 0 mm 4 m/s 757 mmHg 66%
    17:00 +29°C° 0 mm 4 m/s 757 mmHg 74%
    18:00 +28°C° 0 mm 4 m/s 757 mmHg 81%
    19:00 +27°C° 0 mm 4 m/s 758 mmHg 84%
    20:00 +27°C° 0 mm 4 m/s 758 mmHg 87%
    21:00 +27°C° 0 mm 4 m/s 758 mmHg 90%
    22:00 +27°C° 0 mm 5 m/s 758 mmHg 86%
    23:00 +28°C° 0 mm 5 m/s 758 mmHg 83%

    20 Février, Mercredi

    Heure Température Précipitation Vent Pression Humidité
    00:00 +28°C° 0 mm 6 m/s 758 mmHg 79%
    01:00 +28°C° 0 mm 6 m/s 758 mmHg 72%
    02:00 +28°C° 0 mm 6 m/s 757 mmHg 65%
    03:00 +28°C° 0 mm 7 m/s 757 mmHg 58%
    04:00 +28°C° 0 mm 6 m/s 757 mmHg 60%
    05:00 +27°C° 0 mm 6 m/s 757 mmHg 62%
    06:00 +27°C° 0 mm 6 m/s 757 mmHg 64%
    07:00 +28°C° 0 mm 5 m/s 758 mmHg 62%
    08:00 +29°C° 0 mm 5 m/s 758 mmHg 61%
    09:00 +30°C° 0 mm 4 m/s 759 mmHg 59%
    10:00 +32°C° 0 mm 4 m/s 758 mmHg 55%
    11:00 +33°C° 0 mm 4 m/s 758 mmHg 52%
    12:00 +34°C° 0 mm 4 m/s 757 mmHg 48%
    13:00 +33°C° 0 mm 4 m/s 757 mmHg 49%
    14:00 +33°C° 0 mm 4 m/s 756 mmHg 50%
    15:00 +32°C° 0 mm 4 m/s 755 mmHg 51%
    16:00 +30°C° 0 mm 4 m/s 755 mmHg 59%
    17:00 +28°C° 0 mm 4 m/s 755 mmHg 66%
    18:00 +26°C° 0 mm 4 m/s 756 mmHg 74%
    19:00 +26°C° 0 mm 4 m/s 756 mmHg 79%
    20:00 +26°C° 0 mm 4 m/s 757 mmHg 83%
    21:00 +26°C° 0 mm 4 m/s 757 mmHg 87%
    22:00 +26°C° 0 mm 5 m/s 757 mmHg 87%
    23:00 +27°C° 0 mm 5 m/s 757 mmHg 87%

    21 Février, Jeudi

    Heure Température Précipitation Vent Pression Humidité
    00:00 +27°C° 0 mm 5 m/s 757 mmHg 88%
    01:00 +27°C° 0 mm 5 m/s 757 mmHg 86%
    02:00 +27°C° 0 mm 5 m/s 756 mmHg 85%
    03:00 +28°C° 0 mm 5 m/s 756 mmHg 84%
    04:00 +27°C° 0 mm 5 m/s 756 mmHg 85%
    05:00 +27°C° 0 mm 5 m/s 757 mmHg 85%
    06:00 +27°C° 0 mm 4 m/s 757 mmHg 85%
    07:00 +28°C° 0 mm 4 m/s 758 mmHg 79%
    08:00 +29°C° 0 mm 4 m/s 758 mmHg 73%
    09:00 +30°C° 0 mm 4 m/s 759 mmHg 67%
    10:00 +32°C° 0 mm 4 m/s 758 mmHg 61%
    11:00 +33°C° 0 mm 4 m/s 758 mmHg 56%
    12:00 +34°C° 0 mm 3 m/s 758 mmHg 51%
    13:00 +34°C° 0 mm 4 m/s 757 mmHg 52%
    14:00 +34°C° 0 mm 4 m/s 756 mmHg 53%
    15:00 +33°C° 0 mm 4 m/s 755 mmHg 53%
    16:00 +32°C° 0 mm 4 m/s 756 mmHg 62%
    17:00 +29°C° 0 mm 4 m/s 756 mmHg 70%
    18:00 +28°C° 0 mm 4 m/s 756 mmHg 79%
    19:00 +27°C° 0 mm 4 m/s 757 mmHg 82%
    20:00 +27°C° 0 mm 4 m/s 757 mmHg 85%
    21:00 +26°C° 0 mm 4 m/s 758 mmHg 89%
    22:00 +26°C° 0 mm 4 m/s 758 mmHg 89%
    23:00 +26°C° 0 mm 3 m/s 758 mmHg 90%

    22 Février, Vendredi

    Heure Température Précipitation Vent Pression Humidité
    00:00 +26°C° 0 mm 3 m/s 757 mmHg 91%
    01:00 +27°C° 0 mm 3 m/s 757 mmHg 91%
    02:00 +27°C° 0 mm 3 m/s 757 mmHg 90%
    03:00 +27°C° 0 mm 3 m/s 757 mmHg 90%
    04:00 +27°C° 0 mm 3 m/s 757 mmHg 90%
    05:00 +27°C° 0 mm 3 m/s 758 mmHg 91%
    06:00 +27°C° 0 mm 3 m/s 758 mmHg 92%
    07:00 +28°C° 0 mm 3 m/s 759 mmHg 85%
    08:00 +29°C° 0 mm 3 m/s 759 mmHg 78%
    09:00 +31°C° 0 mm 3 m/s 760 mmHg 71%
    10:00 +33°C° 0 mm 3 m/s 759 mmHg 66%
    11:00 +34°C° 0 mm 3 m/s 759 mmHg 61%
    12:00 +34°C° 0 mm 3 m/s 759 mmHg 56%
    13:00 +34°C° 0 mm 3 m/s 758 mmHg 58%
    14:00 +34°C° 0 mm 3 m/s 758 mmHg 59%
    15:00 +33°C° 0 mm 4 m/s 757 mmHg 61%
    16:00 +32°C° 0.1 mm 4 m/s 757 mmHg 68%
    17:00 +29°C° 0.1 mm 4 m/s 758 mmHg 75%
    18:00 +28°C° 0.1 mm 4 m/s 758 mmHg 82%
    19:00 +27°C° 0 mm 4 m/s 758 mmHg 85%
    20:00 +27°C° 0 mm 4 m/s 759 mmHg 88%
    21:00 +27°C° 0 mm 4 m/s 759 mmHg 91%
    22:00 +27°C° 0.1 mm 4 m/s 759 mmHg 92%
    23:00 +27°C° 0.1 mm 4 m/s 759 mmHg 93%
    Voir plus